Ogden, KS

12:34 PM CST on February 07, 2016 (GMT -0600)
Manhattan Regional

Weather History for KMHK - March, 2014

Change the Weather History Date:

Wednesday, March 26, 2014

  Actual Average Record
Temperature  
Mean Temperature 46 °F 47 °F  
Max Temperature 61 °F 61 °F - ()
Min Temperature 30 °F 34 °F - ()
Degree Days  
Heating Degree Days 19 18  
Month to date heating degree days 678 593  
Since 1 July heating degree days 5209 4753  
Cooling Degree Days 0 0  
Month to date cooling degree days 0 0  
Year to date cooling degree days 0 0  
Moisture  
Dew Point 32 °F    
Average Humidity 62    
Maximum Humidity 92    
Minimum Humidity 31    
Precipitation  
Precipitation 0.10 in 0.06 in - ()
Month to date precipitation 0.52 1.88  
Year to date precipitation 1.74 3.60  
Sea Level Pressure  
Sea Level Pressure 29.89 in    
Wind  
Wind Speed 17 mph (South)    
Max Wind Speed 38 mph    
Max Gust Speed 54 mph    
Visibility 9 miles    
Events Rain    
T = Trace of Precipitation, MM = Missing Value Source: NWS Daily Summary

Daily Weather History Graph

Daily Weather History Graph

Search for Another Location

Airport or City:

Trip Planner

Search our weather history database for the weather conditions in past years. The results will help you decide how hot, cold, wet, or windy it might be!

Date:

Astronomy

Mar. 26, 2014 Rise Set
Actual Time 7:20 AM CDT 7:44 PM CDT
Civil Twilight 6:53 AM CDT 8:11 PM CDT
Nautical Twilight 6:22 AM CDT 8:42 PM CDT
Astronomical Twilight 5:50 AM CDT 9:15 PM CDT
Moon 4:28 AM CDT (3/26) 3:26 PM CDT (3/26)
Length of Visible Light 13h 17m
Length of Day
12h 24m
Waning Crescent, 21% of the Moon is Illuminated
Mar 26
Waning Crescent
Mar 30
New
Apr 7
First Quarter
Apr 15
Full
Apr 22
Last Quarter

Hourly Weather History & Observations

Time (CDT) Temp. Windchill Dew Point Humidity Pressure Visibility Wind Dir Wind Speed Gust Speed Precip Events Conditions
12:52 AM 32.0 °F 28.7 °F 17.1 °F 54% 30.18 in 10.0 mi South 3.5 mph - N/A   Clear
1:52 AM 32.0 °F 25.6 °F 17.1 °F 54% 30.16 in 10.0 mi SE 6.9 mph - N/A   Clear
2:52 AM 32.0 °F 25.6 °F 17.1 °F 54% 30.14 in 10.0 mi South 6.9 mph - N/A   Clear
3:52 AM 32.0 °F 26.4 °F 17.1 °F 54% 30.12 in 10.0 mi SSE 5.8 mph - N/A   Clear
4:52 AM 33.1 °F 26.9 °F 17.1 °F 52% 30.08 in 10.0 mi SSE 6.9 mph - N/A   Clear
5:52 AM 33.1 °F 28.7 °F 18.0 °F 54% 30.05 in 10.0 mi Variable 4.6 mph - N/A   Clear
6:52 AM 35.1 °F 28.6 °F 19.9 °F 54% 30.04 in 10.0 mi South 8.1 mph - N/A   Clear
7:52 AM 34.0 °F 25.5 °F 21.0 °F 59% 30.04 in 10.0 mi South 11.5 mph 16.1 mph N/A   Clear
8:52 AM 39.0 °F 32.3 °F 23.0 °F 53% 30.01 in 10.0 mi South 10.4 mph - N/A   Clear
9:52 AM 46.9 °F - 27.0 °F 46% 29.98 in 10.0 mi South 15.0 mph 24.2 mph N/A   Clear
10:52 AM 53.1 °F - 27.0 °F 37% 29.94 in 10.0 mi South 24.2 mph 33.4 mph N/A   Clear
11:52 AM 59.0 °F - 28.9 °F 32% 29.89 in 10.0 mi SSW 25.3 mph 44.9 mph N/A   Clear
12:52 PM 60.1 °F - 30.9 °F 33% 29.84 in 10.0 mi SSW 32.2 mph 51.8 mph N/A   Clear
1:52 PM 57.9 °F - 35.1 °F 42% 29.84 in 10.0 mi SSW 27.6 mph 41.4 mph N/A   Mostly Cloudy
2:52 PM 52.0 °F - 37.0 °F 57% 29.83 in 10.0 mi South 24.2 mph 42.6 mph N/A   Overcast
3:50 PM 48.2 °F - 39.2 °F 71% 29.81 in 10.0 mi SSW 28.8 mph 43.7 mph 0.00 in   Overcast
3:52 PM 48.9 °F - 39.9 °F 71% 29.82 in 10.0 mi South 27.6 mph 43.7 mph 0.00 in   Overcast
4:52 PM 46.0 °F 38.3 °F 43.0 °F 89% 29.77 in 3.0 mi South 20.7 mph 39.1 mph 0.03 in Rain Rain
4:59 PM 45.0 °F 35.1 °F 42.1 °F 90% 29.74 in 4.0 mi SSW 31.1 mph 43.7 mph 0.02 in Rain Light Rain
5:52 PM 45.0 °F 36.2 °F 42.1 °F 90% 29.77 in 8.0 mi South 24.2 mph 35.7 mph 0.05 in Rain Light Rain
6:02 PM 45.0 °F 36.9 °F 42.1 °F 90% 29.75 in 10.0 mi South 20.7 mph 36.8 mph 0.00 in Rain Light Rain
6:52 PM 44.1 °F 35.0 °F 41.0 °F 89% 29.76 in 8.0 mi South 24.2 mph 32.2 mph 0.00 in Rain Light Rain
7:52 PM 44.1 °F 35.4 °F 41.0 °F 89% 29.73 in 10.0 mi South 21.9 mph 33.4 mph 0.02 in Rain Light Rain
8:52 PM 43.0 °F 34.8 °F 42.1 °F 97% 29.72 in 8.0 mi South 18.4 mph 29.9 mph 0.00 in   Overcast
9:52 PM 44.1 °F 35.7 °F 42.1 °F 93% 29.70 in 7.0 mi South 20.7 mph 32.2 mph N/A   Overcast
10:52 PM 44.1 °F 36.2 °F 42.1 °F 93% 29.66 in 8.0 mi South 18.4 mph 28.8 mph N/A   Overcast
11:52 PM 45.0 °F 38.9 °F 42.1 °F 90% 29.63 in 8.0 mi South 12.7 mph 21.9 mph N/A   Overcast